#timestamp,LO_Frequency,Hit,StdDev 
1586379615.6,286046999.5,N
1586379635.4,286046999.5,N
1586379655.2,286046996.6,N
1586379675.1,286046998.1,N
1586379676.0,286046998.1,N
1586379695.8,286046998.7,N
1586379715.7,286046995.4,Y
1586379735.5,286046996.2,P
1586379755.3,286046997.9,N
1586379775.2,286046999.0,N
1586379795.0,286046998.0,N
1586379795.9,286046998.0,N
1586379815.8,286046994.9,Y
1586379835.6,286047000.7,P
1586379855.4,286047000.9,N
1586379875.3,286046998.1,N
1586379895.1,286046999.0,N
1586379915.9,286046999.0,N
1586379935.7,286046996.6,N
1586379955.5,286046999.3,N
1586379975.4,286046998.5,N
1586379995.2,286046998.3,N
1586380015.0,286046997.2,N
1586380015.9,286046997.2,N
1586380035.8,286046997.2,N
1586380055.6,286046995.6,Y
1586380075.5,286046997.3,P
1586380095.3,286046996.8,P
1586380115.1,286046996.1,P
1586380135.9,286046995.4,Y
1586380155.7,286046996.5,P
1586380175.6,286046996.9,P
1586380195.4,286046997.1,P
1586380215.2,286046997.6,Y
1586380235.1,286047000.3,P
1586380236.0,286047000.3,N
1586380255.8,286047000.8,N
1586380275.7,286046998.6,N
1586380295.5,286046996.6,N
1586380315.3,286046997.5,N
1586380335.2,286046998.3,N
1586380385.9,286046998.7,E
1586380395.9,286047000.8,N
1586380415.7,286047001.1,P
1586380435.5,286046999.6,N
1586380455.4,286046996.5,Y
1586380475.2,286046998.3,P
1586380495.0,286046999.5,N
1586380496.0,286046999.5,N
1586380515.8,286046996.6,Y
1586380535.6,286046998.3,P
1586380555.5,286046998.8,N
1586380575.3,286046999.5,N
1586380595.1,286046997.0,Y
1586380615.9,286046998.3,P
1586380635.7,286046996.5,P
1586380655.6,286046998.9,N
1586380675.4,286046998.1,N
1586380695.2,286046996.5,Y
1586380715.1,286047000.9,P
1586380716.0,286047000.9,N
1586380735.8,286047000.4,N
1586380755.7,286046998.1,N
1586380775.5,286046999.2,N
1586380795.3,286046997.7,N
1586380815.2,286046996.7,N
1586380835.0,286046996.5,N
1586380835.9,286046996.5,N
1586380855.8,286046999.3,N
1586380875.6,286046997.0,N
1586380895.4,286046995.4,N
1586380915.3,286046995.3,N
1586380935.1,286046997.7,N
1586380955.8,286046995.7,N
1586380975.7,286046993.3,Y
1586380995.5,286046997.8,P
1586381015.4,286046997.6,P
1586381035.2,286046995.2,P
1586381055.0,286046993.8,Y
1586381055.9,286046993.8,P
1586381075.8,286046996.6,N
1586381095.6,286046998.9,N
1586381115.5,286046999.2,N
1586381135.3,286046998.1,N
1586381155.1,286047000.7,N
1586381175.9,286046998.6,N
1586381195.7,286046998.3,N
1586381215.6,286046998.6,N
1586381235.4,286047000.9,N
1586381255.2,286046999.0,N
1586381275.1,286046998.7,N
1586381276.0,286046998.7,N
1586381295.8,286046999.4,N
1586381315.6,286046998.8,N
1586381335.5,286047001.0,N
1586381355.3,286047000.5,N
1586381375.2,286046998.5,N
1586381395.9,286046999.6,N
1586381415.7,286046998.3,N
1586381435.6,286046998.3,N
1586381455.4,286046999.7,N
1586381475.2,286047000.2,N
1586381495.1,286046999.7,N
1586381496.0,286046999.7,N
1586381515.8,286047002.7,N
1586381535.7,286047004.0,N
1586381555.5,286047003.3,N
1586381575.3,286047005.1,N
1586381595.2,286047005.4,N
1586381615.0,286047005.3,N
1586381615.9,286047005.3,N
1586381635.8,286047005.6,N
1586381655.6,286047003.0,N
1586381675.4,286047005.1,N
1586381695.3,286047006.7,N
1586381715.1,286047006.8,N
1586381735.8,286047005.0,N
1586381755.7,286047004.9,N
1586381775.5,286047007.6,N
1586381795.4,286047008.3,N
1586381815.2,286047009.0,N
1586381835.0,286047009.1,N
1586381835.9,286047009.1,N
1586381855.8,286047006.2,N
1586381875.6,286047008.5,N
1586381895.5,286047006.2,N
1586381915.3,286047007.8,N
1586381935.1,286047009.4,N
1586381955.9,286047008.6,N
1586381975.7,286047006.8,N
1586381995.6,286047007.3,N
1586382015.4,286047008.5,Y
1586382035.2,286047003.7,P
1586382055.1,286047003.6,P
1586382056.0,286047003.6,P
1586382075.8,286047001.6,N
1586382095.7,286047004.0,Y
1586382115.5,286047000.7,P
1586382135.4,286047001.5,N
1586382155.2,286047003.7,N
1586382175.0,286047002.6,N
1586382175.9,286047002.6,N
1586382195.8,286047001.5,N
1586382215.6,286047003.2,Y
1586382235.5,286046998.1,P
1586382255.3,286047000.0,N
1586382275.1,286047001.0,N
1586382295.9,286047002.0,N
1586382315.7,286047002.2,N
1586382335.5,286046999.7,N
1586382355.4,286047000.2,N
1586382375.2,286047002.0,N
1586382395.1,286047003.7,N
1586382396.0,286047003.7,N
1586382415.8,286047003.1,N
1586382435.6,286047005.6,Y
1586382455.5,286046999.8,P
1586382475.3,286047003.6,P
1586382495.2,286046999.9,N
1586382515.9,286047000.9,N
1586382535.7,286047001.2,N
1586382555.6,286046999.8,N
1586382575.4,286047002.0,N
1586382595.2,286047001.9,N
1586382615.1,286047003.9,Y
1586382616.0,286047003.9,P
1586382635.8,286047001.0,N
1586382655.7,286047002.6,N
1586382675.5,286047001.2,N
1586382695.3,286046996.9,N
1586382715.2,286046999.1,N
1586382735.0,286046996.7,N
1586382735.9,286046996.7,N
1586382755.8,286046997.8,N
1586382775.6,286046997.1,N
1586382795.4,286046999.4,N
1586382815.3,286047000.9,N
1586382835.1,286047000.2,N
1586382855.9,286047000.6,N
1586382875.7,286047002.2,N
1586382895.5,286046999.7,N
1586382915.4,286046998.1,N
1586382935.2,286046998.6,N
1586382955.0,286046999.7,N
1586382956.0,286046999.7,N
1586382975.8,286047003.0,N
1586382995.6,286047006.0,N
1586383015.5,286047002.8,N
1586383035.3,286047000.7,N
1586383055.1,286046998.5,N
1586383075.9,286047000.1,N
1586383095.7,286047000.5,N
1586383115.6,286046998.6,N
1586383135.4,286047002.5,N
1586383155.2,286047002.3,N
1586383175.1,286047002.6,N
1586383176.0,286047002.6,N
1586383195.8,286047000.1,N
